loading
|

OBJECT D, 60748

Orbit data source: Space-Track

OBJECT D, 60748 is a Chinese satellite in SSO that was launched on Thu, 29 Aug 2024 UTC via a GUSHENXING 1 launch vehicle from the Yellow Sea Launch Area, China (YSLA). Unknown objects in Earth's orbit typically refer to objects detected orbiting the Earth but have not yet been identified or cataloged. These objects could be anything from previously untracked satellites, spent rocket stages, debris from satellite collisions, or even natural meteoroids temporarily captured by Earth's gravity.

Loading next visibility...
Loading greatness...
OBJECT D details
Identifier
60748, 2024-153D
Orbit
SSO
Last TLE update4 hours ago
Origin
Flag of CNJTXZ (CN / PRC)
ManufacturerJTXZ
Mission statusOperational
MissionUnknown
Bus & MotorJTX, Unknown motor
Mass~50 kg wet, ~50 kg dry
Launch date (UTC)
2024-08-29 (3 weeks ago)
Launch vehicle
GUSHENXING 1
Launch site
Yellow Sea Launch Area, China (YSLA)
Object typeUnknown
Radar Cross SectionMedium (>0.1 m² and <1 m²)

Expand to show TLE details & history

TLE from 4 hours ago
0 OBJECT D
1 60748U 24153D   24261.81579743  .00032471  00000-0  19592-2 0  9994
2 60748  97.6211  19.2469 0016214 220.6562 139.3458 15.10549418  2969
Epoch: 2024-09-17T19:34Z
Definitive object data (Epoch: 2024-09-17T19:34:44.897Z)
Latitude-0.00004°
Longitude88.3348°
Altitude546.107 km
Speed7.584 km/s
True Right ascension01h 16m 59s
True Declination0° 00' 00"
Sunlit
Object was in full shadow at TLE epoch
Predictive object data (real-time)
Latitude72.68763°
Longitude63.20817°
Altitude556.28 km
Speed7.585 km/s
Apparent Right ascension02h 42m 47s
Apparent Declination22° 33' 15"
Sunlit
Object is in daylight
Predictive observer data (real-time)
Local Sidereal Time15:54:15
Azimuth18.271° NNE
Elevation-25.344°
Doppler factor1
Orbital elements
Apogee542.714 km
Perigee520.308 km
Semi-major axis6,909.648 km
Eccentricity0.0016214
Inclination97.6211°
RAAN19.2469°
Arg. of periapsis220.6562°
True anomaly139.46666°
Mean anomaly139.3458°
Eccentric anomaly139.40625°
Mean motion3.77885 °/min
BSTAR0.0019592
Period95.27 mins
No data available

OBJECT D Visibility forecast

Observer location: 39.9160978°, -105.1181434

OBJECT D is not visible in the next 10 days
Span
Click to sort rows by Start time (UTC) header in descending order
Start Az.
Max El. time (UTC)
Max El. Az.
Max El.
End time (UTC)
End Az.